Regional Weather Roundup
Issued by NWS

Home | Current Version | Previous Version | Text Only | Print | Product List | Glossary Off
Versions: 1 2 3 4 5 6 7 8 9 10 11 12 13 14 15 16 17 18 19 20 21 22 23 24 25 26 27 28 29 30 31 32 33 34 35 36 37 38 39 40 41 42 43 44 45 46 47 48 49 50

000
ASUS43 KMKX 171921
RWRWI

WISCONSIN REGIONAL WEATHER ROUNDUP
NATIONAL WEATHER SERVICE MILWAUKEE/SULLIVAN WI
100 PM CST WED DEC 17 2014

NOTE: "FAIR" INDICATES FEW OR NO CLOUDS BELOW 12,000 FEET WITH NO
SIGNIFICANT WEATHER AND/OR OBSTRUCTIONS TO VISIBILITY.

WIZ001-002-006>008-014>016-023>028-172000-
NORTHWEST WISCONSIN

CITY           SKY/WX    TMP DP  RH WIND       PRES   REMARKS
SUPERIOR ARPT  CLOUDY    20  11  69 CALM      30.29F
ASHLAND        CLOUDY    23  18  81 NW6       30.24F WCI  16
HAYWARD        CLOUDY    18  10  71 W3        30.23F
SIREN          MOSUNNY   17   9  70 NW3       30.28S
CUMBERLAND     CLOUDY    18   9  68 CALM      30.25S
RICE LAKE      CLOUDY    19  10  68 W6        30.28S WCI  11
CHETEK         CLOUDY    18   9  69 NW5       30.26S WCI  11
LADYSMITH      PTSUNNY   20  11  67 W3        30.24S
EAU CLAIRE     CLOUDY    19  11  70 W9        30.26S WCI   8
MENOMONIE      FLURRIES  19  12  74 W10       30.27F WCI   8
NEW RICHMOND   FLURRIES  17  11  79 NW12      30.29S WCI   4
OSCEOLA        FLURRIES  17  11  77 W5        30.32F WCI  10
$$

WIZ003>005-009-010-017-018-172000-
NORTH CENTRAL WISCONSIN

CITY           SKY/WX    TMP DP  RH WIND       PRES   REMARKS
MANITOWISH WTR LGT SNOW  19  15  86 NW9       30.14S WCI   7
ARBOR VITAE    LGT SNOW  22  17  80 NW9       30.13S WCI  11
WOODRUFF       LGT SNOW  22  17  80 NW9       30.13S WCI  11
RHINELANDER    LGT SNOW  19  12  74 NW10      30.13S WCI   7
EAGLE RIVER    FLURRIES  20  15  78 NW8       30.11S WCI  11
LAND O LAKES   LGT SNOW  24  19  84 NW7       30.11S WCI  15
PHILLIPS       MOSUNNY   18  10  71 W3        30.17S
TOMAHAWK       PTSUNNY   22  13  69 NW3       30.16S
MEDFORD        MOSUNNY   17   9  70 W10       30.17F WCI   5
MERRILL        SUNNY     22  11  63 N9G16     30.15S WCI  12
$$

WIZ029-030-035-036-043>047-172000-
CENTRAL WISCONSIN

CITY           SKY/WX    TMP DP  RH WIND       PRES   REMARKS
WAUSAU         SUNNY     21  11  65 W10       30.16F WCI  10
MOSINEE        MOSUNNY   21  14  73 NW10G17   30.18S WCI  10
MARSHFIELD     CLOUDY    20  13  74 W14       30.19F WCI   7
STEVENS POINT  MOSUNNY   19   9  66 NW8       30.18F WCI   9
WAUPACA        MOSUNNY   27  16  61 W10       30.18F WCI  18
WAUTOMA        CLOUDY    24  16  71 NW9       30.20S WCI  14
WISC RAPIDS    CLOUDY    21  13  71 NW10      30.21S WCI  10
CAMP DOUGLAS   FLURRIES  21  18  86 W13       30.23S WCI   9
$$

WIZ011>013-019>022-031-037>040-048>050-172000-
NORTHEAST WISCONSIN

CITY           SKY/WX    TMP DP  RH WIND       PRES   REMARKS
ANTIGO         PTSUNNY   20  13  73 W13       30.12S WCI   8
SHAWANO        MOSUNNY   27  15  61 NW10      30.16S WCI  17
OCONTO         CLOUDY    24  16  70 W13G18    30.14S WCI  13
STURGEON BAY   CLOUDY    25  16  68 W16G22    30.12S WCI  12
GREEN BAY      LGT SNOW  24  16  71 NW14      30.15F WCI  12
MANITOWOC      PTSUNNY   29  18  63 NW21G26   30.14F WCI  16
APPLETON       PTSUNNY   25  14  63 W16       30.16F WCI  12
CLINTONVILLE   PTSUNNY   27  14  59 NW10      30.16S WCI  17
OSHKOSH        CLOUDY    24  15  68 NW12      30.17F WCI  13
$$

WIZ032>034-041-042-053>061-172000-
SOUTHWEST WISCONSIN

CITY           SKY/WX    TMP DP  RH WIND       PRES   REMARKS
LA CROSSE      MOSUNNY   24  12  60 NW10      30.27F WCI  14
SPARTA         CLOUDY    22  13  68 NW9       30.26S WCI  12
VIROQUA        CLOUDY    21  15  77 NW7       30.21F WCI  13
BOSCOBEL       CLOUDY    22  13  68 W6        30.27F WCI  14
PRAIRIE DU CHI MOSUNNY   22  12  64 NW7       30.27F WCI  13
PLATTEVILLE    CLOUDY    21  16  81 CALM      30.24F
$$

WIZ056-057-062-063-064-067-068-172000-
SOUTH CENTRAL WISCONSIN

CITY           SKY/WX    TMP DP  RH WIND       PRES   REMARKS
REEDSBURG      CLOUDY    22  14  70 NW12G18   30.22S WCI  11
BARABOO/DELLS  CLOUDY    23  14  69 NW9       30.21R WCI  13
LONE ROCK      CLOUDY    26  13  57 W14       30.25S WCI  14
MINERAL POINT  CLOUDY    23  18  80 NW8       30.21S WCI  14
MADISON        FLURRIES  25  15  66 W8        30.20F WCI  16
MIDDLETON      CLOUDY    26  16  65 W10G16    30.21S WCI  16
WATERTOWN      CLOUDY    25  17  71 NW10      30.19S WCI  15
MONROE         CLOUDY    23  18  80 W12       30.20F WCI  12
JANESVILLE     CLOUDY    27  18  69 NW12      30.21F WCI  16
$$

WIZ051-052-058>065-066-070>072-172000-
SOUTHEAST WISCONSIN

CITY           SKY/WX    TMP DP  RH WIND       PRES   REMARKS
MILWAUKEE      CLOUDY    26  14  60 W13G20    30.19S WCI  15
WAUKESHA       CLOUDY    23  16  74 W14       30.19F WCI  11
MILWAUKEE/TIMM CLOUDY    25  16  68 NW17      30.19F WCI  11
RACINE         CLOUDY    27  17  66 W10       30.20F WCI  17
BURLINGTON     CLOUDY    24  16  72 W9        30.19F WCI  14
KENOSHA        CLOUDY    26  18  71 W10       30.19F WCI  16
FOND DU LAC    CLOUDY    25  16  68 W13       30.17F WCI  14
SHEBOYGAN      CLOUDY    25  15  66 NW14G24   30.16S WCI  13
WEST BEND      CLOUDY    25  18  74 W12G22    30.16F WCI  14
JUNEAU         CLOUDY    23  16  73 W8        30.20S WCI  14
$$

LSZ147-162-172000-
LAKE SUPERIOR

STATION/POSITION TIME  TEMP    WIND        PRES    WAVE
                       AIR SEA DIR/SP/G            HT/PER
                 (UTC) (F)     (DEG/KT/KT) (MB)    (FT/S)
DEVILS ISLAND    1900   24      30/ 11/ 13 1025.5R
PORT WING        1800   22     330/ 10/ 11 1025.1S
SAXON HARBOR     1800   22     270/  2/  7 1023.7F
$$

LMZ867-665-643>646-172000-
LAKE MICHIGAN

STATION/POSITION TIME  TEMP    WIND        PRES    WAVE
                       AIR SEA DIR/SP/G            HT/PER
                 (UTC) (F)     (DEG/KT/KT) (MB)    (FT/S)
CHAMBERS ISLAND  1800   25     260/  7/ 15 1019.3F
NORTHPORT PIER   1800   26     290/ 14/ 20 1018.3F
SISTER BAY       1813          320/ 23/ 26   N/A
ALGOMA LAKESHORE 1814          330/ 13/ 17   N/A
KEWAUNEE LAKESHO 1800   25     300/ 14/ 19 1019.4F
SHEBOYGAN LAKESH 1900   25 35  290/ 13/ 16 1022.4S
PORT WASHINGTON  1800   26     280/  9/ 12 1022.7F
MILWAUKEE LAKESH 1900   26     280/ 11/ 16   N/A
KENOSHA   LAKESH 1900   26     290/ 11/ 17 1022.4F
$$

TC  - TEMPERATURE IN CELSIUS
VSB - VISIBILITY IN STATUTE MILES
WCI - WIND CHILL INDEX
HX  - HEAT INDEX



USA.gov is the U.S. government's official web portal to all federal, state and local government web resources and services.